Tracking 29777 objects as of 4-Oct-2024
HD Live streaming from Space Station
objects crossing your sky now

LAYAN-23

Track LAYAN-23 now!
10-day predictions


NORAD ID: 56939
Int'l Code: 2023-084H
Perigee: 456.9 km
Apogee: 462.8 km
Inclination: 97.5 °
Period: 93.6 minutes
Semi major axis: 6830 km
RCS: Unknown
Launch date: June 12, 2023
Source: Republic of Rwanda (RWA)
Launch site: AIR FORCE WESTERN TEST RANGE (AFWTR)
Your satellite tracking list
Your tracking list is empty




NASA's NSSDC Master Catalog

Two Line Element Set (TLE):
1 56939U 23084H   24278.57345988  .00093069  00000-0  24823-2 0  9999
2 56939  97.5463  40.3437 0004344 338.5984  21.5078 15.37775320 72950
Source of the keplerian elements: AFSPC